Location: Les Coudrans
(46.1056°N, 1.1158°W)
Time: 13:03:52
(UTC+00:00)

Ariane Rocket - Pass Details

Date: 03 March 2021
Orbit: 759 x 771 km, 98.7° (Epoch: 19 April)

Event Time Altitude Azimuth Distance (km) Brightness Sun altitude
Exits shadow 20:22:14 41° 193° (SSW) 1,105 3.7 -26.2°
Maximum altitude 20:23:54 65° 258° (WSW) 847 3.3 -26.5°
Drops below altitude 10° 20:29:00 10° 340° (NNW) 2,323 6.0 -27.3°
Sets 20:31:20 0° 344° (NNW) 3,253 6.8 -27.7°
